TimeEST,TemperatureF,Dew PointF,Humidity,Sea Level PressureIn,VisibilityMPH,Wind Direction,Wind SpeedMPH,Gust SpeedMPH,PrecipitationIn,Events,Conditions,WindDirDegrees,DateUTC
12:21 AM,48.2,46.4,93,29.85,2.5,Calm,Calm,-,0.03,Rain,Light Rain,0,2012-12-08 05:21:00
12:40 AM,46.4,46.4,100,29.84,1.5,SE,6.9,-,0.03,Rain,Light Rain,130,2012-12-08 05:40:00
12:51 AM,46.9,46.0,97,29.85,1.5,SE,5.8,-,0.03,Rain,Light Rain,130,2012-12-08 05:51:00
1:51 AM,48.0,46.9,96,29.83,0.8,SE,5.8,-,0.01,Rain,Light Rain,140,2012-12-08 06:51:00
2:36 AM,48.2,46.4,93,29.81,0.2,ESE,4.6,-,0.01,Fog-Rain,Light Rain,120,2012-12-08 07:36:00
2:51 AM,48.0,46.9,96,29.82,0.2,Calm,Calm,-,0.01,Fog-Rain,Light Rain,0,2012-12-08 07:51:00
3:42 AM,48.2,48.2,100,29.80,0.5,SSW,9.2,-,0.01,Fog-Rain,Light Rain,200,2012-12-08 08:42:00
3:51 AM,50.0,48.0,93,29.81,0.5,SSW,10.4,-,0.01,Rain,Light Rain,210,2012-12-08 08:51:00
4:51 AM,50.0,48.9,96,29.81,2.5,WSW,12.7,-,0.00,,Overcast,240,2012-12-08 09:51:00
5:06 AM,50.0,48.2,94,29.79,4.0,WSW,11.5,-,N/A,,Mostly Cloudy,240,2012-12-08 10:06:00
5:21 AM,50.0,48.2,94,29.80,4.0,SW,9.2,-,N/A,,Partly Cloudy,230,2012-12-08 10:21:00
5:51 AM,48.9,48.0,97,29.82,4.0,SW,8.1,-,N/A,,Mostly Cloudy,230,2012-12-08 10:51:00
6:51 AM,50.0,46.9,89,29.83,5.0,SW,10.4,-,N/A,,Mostly Cloudy,230,2012-12-08 11:51:00
7:51 AM,48.9,46.0,90,29.82,4.0,SW,11.5,-,N/A,,Mostly Cloudy,220,2012-12-08 12:51:00
7:58 AM,48.2,46.4,93,29.82,3.0,SW,10.4,-,N/A,,Scattered Clouds,230,2012-12-08 12:58:00
8:10 AM,50.0,46.4,87,29.82,3.0,SW,9.2,-,N/A,,Mostly Cloudy,230,2012-12-08 13:10:00
8:51 AM,50.0,46.9,89,29.84,3.0,WSW,8.1,-,N/A,,Overcast,240,2012-12-08 13:51:00
9:51 AM,51.1,46.9,86,29.87,3.0,SW,10.4,-,N/A,,Overcast,230,2012-12-08 14:51:00
9:58 AM,51.8,48.2,88,29.85,3.0,SW,10.4,-,N/A,,Overcast,230,2012-12-08 14:58:00
10:51 AM,51.1,46.9,86,29.88,3.0,SW,13.8,20.7,N/A,,Overcast,230,2012-12-08 15:51:00
11:51 AM,52.0,46.9,83,29.86,3.0,WSW,6.9,-,0.00,Rain,Light Rain,250,2012-12-08 16:51:00
12:51 PM,52.0,48.0,86,29.84,3.0,WSW,8.1,-,0.00,,Overcast,240,2012-12-08 17:51:00
1:04 PM,51.8,48.2,88,29.83,3.0,West,12.7,-,N/A,,Overcast,260,2012-12-08 18:04:00
1:51 PM,52.0,46.9,83,29.85,3.0,WNW,10.4,-,N/A,,Haze,290,2012-12-08 18:51:00
2:51 PM,51.1,45.0,80,29.88,3.0,WNW,13.8,-,N/A,,Haze,300,2012-12-08 19:51:00
3:51 PM,48.9,45.0,86,29.92,6.0,NW,11.5,-,N/A,,Overcast,310,2012-12-08 20:51:00
4:51 PM,46.9,44.1,90,29.96,6.0,NW,10.4,-,N/A,,Overcast,320,2012-12-08 21:51:00
5:22 PM,44.6,42.8,93,29.96,1.0,NNW,15.0,-,N/A,,Overcast,330,2012-12-08 22:22:00
5:51 PM,44.1,42.1,93,29.99,1.0,NNW,11.5,-,N/A,,Overcast,340,2012-12-08 22:51:00
6:03 PM,44.6,42.8,93,29.98,3.0,NNW,9.2,-,N/A,,Overcast,340,2012-12-08 23:03:00
6:32 PM,42.8,39.2,87,29.99,2.0,North,12.7,-,N/A,,Overcast,10,2012-12-08 23:32:00
6:51 PM,41.0,39.0,93,30.03,2.0,North,10.4,19.6,N/A,,Overcast,350,2012-12-08 23:51:00
7:51 PM,41.0,37.9,89,30.07,2.0,North,10.4,-,N/A,,Overcast,360,2012-12-09 00:51:00
7:54 PM,41.0,37.4,87,30.05,6.0,North,10.4,-,N/A,,Overcast,360,2012-12-09 00:54:00
8:51 PM,39.9,35.1,83,30.09,10.0,NNE,9.2,-,N/A,,Overcast,20,2012-12-09 01:51:00
9:51 PM,39.9,35.1,83,30.10,9.0,NNE,5.8,-,N/A,,Overcast,30,2012-12-09 02:51:00
10:51 PM,39.0,35.1,86,30.11,9.0,NE,9.2,-,N/A,,Mostly Cloudy,50,2012-12-09 03:51:00
11:51 PM,39.0,34.0,82,30.12,10.0,NE,6.9,-,N/A,,Mostly Cloudy,40,2012-12-09 04:51:00